www.pogodaiklimat.ru

Погода и климат >> Архив погоды >> Россия >> Ненецкий АО >> Варандей


ПОГОДА в Варандее

  • Прогноз погоды в Варандее
  • Монитор погоды в Варандее

АРХИВ ПОГОДЫ в Варандее

Время (UTC), дата Ветер
(напр.,м/с)
 
Видим.   Явления Облачность Т
(С)
Тd
(С)
f
(%)
Тe
(С)
Тes
(С)
Комфортность P
(гПа)
Po
(гПа)
Тmin
(С)
Tmax
(С)
R
(мм)
R24
(мм)
S
(см)
09 15.09 В 9-13
{16}
10 км слаб. ливневой дождь 10/10 300 м
[Cb calv]
+7.3 +6.1 92 +2 +2 995.5 994.7
12 15.09 В 7-11
{13}
10 км {ливн. осадки} 8/8 300 м
[Cb calv]
+9.1 +7.7 91 +5 +5 994.6 993.8
15 15.09
{11}
10 км в посл. час ливневой дождь н/о +9.1 +6.8 86 +6 +6 994.4 993.6 +9.8 7
18 15.09 ЮВ 5 10 км в посл. час дождь {ливн. осадки} 10/10 300 м
[Cb cap]
+8.3 +6.5 88 +5 +5 993.7 992.9
21 15.09 ЮВ 5 10 км слаб. ливневой дождь 10/10 300 м
[Cb cap]
+7.5 +6.1 91 +3 +3 993.0 992.2
00 16.09 В 6
{11}
10 км {ливн. осадки} 8/8 300 м
[Cb cap]
+6.2 +5.1 93 +1 +1 992.1 991.3
03 16.09 В 7
{11}
10 км 10/10 200 м
[St]
+5.9 +3.9 87 +1 +1 991.3 990.5 +5.7 1
06 16.09 В 7
{10}
20 км 9/9 300 м
[Cb calv]
+7.5 +5.2 85 +3 +3 990.8 990.0
09 16.09 В 9-12
{12}
20 км 9/8 300 м
[Cb calv Ci fib]
+8.1 +5.4 83 +3 +3 990.6 989.8
12 16.09 В 7-10
{12}
10 км слаб. ливневой дождь 9/9 300 м
[Cb calv]
+7.7 +5.5 86 +3 +3 990.7 989.9
15 16.09 В 5
{11}
20 км {ливн. осадки} 10/10 300 м
[Cb calv]
+6.5 +4.5 87 +2 +2 990.5 989.7 +8.6 0.4
18 16.09 В 4 20 км {ливн. осадки} 10/10 300 м
[Cb cap]
+5.9 +4.6 91 +2 +2 990.1 989.3
21 16.09 В 2 4000 м дымка 10/10 200 м
[Cb cap]
+5.7 +4.8 94 +3 +3 989.4 988.6
00 17.09 ЮВ 2 10 км 10/10 300 м
[Cb cap]
+5.4 +4.5 94 +3 +3 989.0 988.2
03 17.09 ЮЗ 3 10 км слаб. ливневой дождь 10/10 300 м
[Cb cap]
+5.5 +4.5 93 +2 +2 989.0 988.1 +5.3 1
06 17.09 ЮЗ 5 10 км слаб. дождь 10/10 200 м
[Frnb Ns]
+6.4 +5.0 91 +2 +2 989.2 988.4
09 17.09 ЮЗ 4 20 км в посл. час дождь 10/10 300 м
[Cb calv]
+7.3 +5.1 86 +4 +4 989.6 988.8
12 17.09 Ю 3 20 км {ливн. осадки, дождь} 10/10 300 м
[Cb calv]
+7.5 +5.6 88 +5 +5 990.2 989.4
15 17.09 ЮЗ 2 20 км 8/8 300 м
[Sc]
+6.7 +4.7 87 +4 +4 990.8 990.0 +7.6 2
18 17.09 ЮЗ 1 20 км 8/8 300 м
[Sc]
+5.5 +4.3 92 +4 +4 990.7 989.9
21 17.09 Ю 1 20 км 10/10 300 м
[Sc]
+4.9 +4.0 94 +3 +3 990.6 989.8
00 18.09 В 2 500 м туман 9/9 300 м
[Sc]
+3.7 +2.9 95 +1 +1 990.7 989.9
03 18.09 В 2 10 км {туман} 10/10 300 м
[Sc]
+5.1 +4.4 95 +2 +2 990.5 989.7 +3.5
06 18.09 В 2 10 км слаб. дождь {туман} 10/10 200 м
[Frnb Ns]
+6.5 +5.6 94 +4 +4 990.5 989.7
09 18.09 З 1 10 км {дождь} 10/10 300 м
[Cb calv]
+7.4 +5.9 90 +6 +6 990.9 990.1
12 18.09 СЗ 9-11
{11}
10 км слаб. морось {дождь} 10/10 200 м
[St]
+5.6 +4.4 92 -1 -1 992.4 991.6
15 18.09 СЗ 5
{11}
20 км {морось} 9/9 600 м
[Sc]
+6.1 +2.0 75 +2 +2 993.6 992.8 +7.5 2
18 18.09 З 4 20 км {морось} 8/8 300 м
[Sc]
+6.5 +1.0 68 +3 +3 993.9 993.1
21 18.09 ЮЗ 4 20 км 10/10 300 м
[Sc]
+5.0 +3.2 88 +1 +1 994.5 993.7
00 19.09 ЮЗ 5 20 км 8/8 300 м
[Sc]
+3.0 +1.9 92 -2 -2 995.0 994.2
03 19.09 ЮЗ 4 4000 м слаб. дождь 8/8 300 м
[Sc]
+3.0 +2.1 94 -2 -2 995.2 994.4 +2.0
06 19.09 Ю 3 20 км слаб. ливневой дождь 9/9 300 м
[Cb calv]
+4.9 +3.9 93 +1 +1 995.8 995.0
09 19.09 СЗ 3 20 км {ливн. осадки} 8/8 300 м
[Cb cap Ci fib]
+7.1 +1.6 68 +4 +5 996.5 995.7
12 19.09 З 3 20 км {ливн. осадки} 4/3 300 м
[Cb calv Ci fib]
+6.9 +1.6 69 +4 +5 997.2 996.4
15 19.09 З 5 20 км 6/6 300 м
[Cb calv]
+5.9 +2.3 78 +2 +2 997.6 996.8 +7.2 0.0
18 19.09 штиль 0 20 км 6/6 300 м
[Cb cap]
+4.7 +1.3 79 +4 +4 997.3 996.5
21 19.09 З 3 20 км {ливн. осадки} 6/6 300 м
[Cb cap]
+4.9 +1.0 76 +2 +2 996.9 996.1
00 20.09 ЮЗ 5 20 км {ливн. осадки} 6/6 300 м
[Cb cap]
+2.2 +0.7 90 -3 -3 997.0 996.2
03 20.09 ЮЗ 4 20 км {ливн. осадки} 8/8 300 м
[Cb cap]
+1.8 +0.8 93 -3 -3 996.9 996.1 +1.3 1
06 20.09 СЗ 4 20 км осадки на расстоянии {ливн. осадки} 6/6 300 м
[Cb cap]
+5.3 +1.3 75 +1 +2 996.7 995.9
09 20.09 З 5
{10}
20 км в посл. час ливневой дождь 6/6 300 м
[Cb cap]
+6.0 +1.8 74 +2 +2 997.6 996.8
12 20.09 З 6
{10}
20 км осадки на расстоянии {ливн. осадки} 6/6 300 м
[Cb cap]
+5.8 +1.3 73 +1 +1 998.5 997.7
15 20.09 З 9-11
{13}
20 км осадки на расстоянии {ливн. осадки} 6/6 300 м
[Cb calv]
+5.9 +0.6 69 0 0 998.4 997.6 +6.2 1
18 20.09 З 9-12
{14}
20 км {ливн. осадки} 6/6 300 м
[Cb cap]
+6.0 +1.3 72 0 0 998.6 997.8
21 20.09 З 10-13
{13}
20 км 5/5 300 м
[Cb cap]
+5.7 +0.4 69 -0 -0 998.5 997.7
00 21.09 ЮЗ 8-10
{13}
20 км 8/8 300 м
[Cb cap]
+3.5 +1.4 86 -3 -3 998.7 997.9
03 21.09 ЮЗ 8
{11}
20 км 5/5 300 м
[Cb cap]
+1.1 +0.1 93 -6 -6 998.8 998.0 +1.1 0.0
06 21.09 ЮЗ 10-12
{13}
20 км 3/3 300 м
[Cb calv]
+4.0 +1.2 82 -3 -3 999.0 998.2 +1.0
09 21.09 З 9-12
{13}
20 км 4/4 300 м
[Cu Sc]
+4.8 -0.3 70 -1 -1 999.8 999.0
12 21.09 З 9-11
{13}
20 км 4/3 300 м
[Cb calv Ci fib]
+4.3 -0.8 69 -2 -2 1000.4 999.6
15 21.09 ЮЗ 6
{11}
20 км 4/4 300 м
[Cu Sc]
+3.1 -0.8 76 -2 -2 1000.5 999.7 +4.9
18 21.09 ЮЗ 8
{10}
20 км 3/3 300 м
[Sc]
+0.8 -0.6 90 -7 -7 1000.8 1000.0
21 21.09 ЮЗ 5 20 км 9/9 300 м
[Sc]
0.0 -1.0 93 -6 -6 1001.0 1000.2
00 22.09 ЮЗ 5 10 км 9/9 300 м
[Sc]
+0.6 -0.8 90 -5 -5 1000.8 1000.0
03 22.09 ЮЗ 6 4000 м дымка 10/10 150 м
[St]
-0.4 -1.1 95 -7 -7 1001.2 1000.4 -0.4 0.0
06 22.09 Ю 4 10 км {туман} 10/10 200 м
[St]
+0.3 -0.3 96 -5 -5 1001.9 1001.1 -0.8

 

Местоположение метеостанции Варандей (Ненецкий АО, Россия): широта 68.82 долгота 58.02 высота над уровнем моря 7 м.

В архиве по умолчанию представлена погода в Варандее за последнюю неделю. Архивные данные за месяц целиком и за предыдущие месяцы, начиная с января 2011 года, Вы можете получить, выбрав интересующий диапазон дат из раскрывающегося списка и нажав кнопку "Ввод!".


*Определитесь, кто Вы:
робот инопланетянин человек

Внимание! Время в таблицах - всемирное. Для получения местного времени необходимо прибавить поправку, которая равна 3 ч.

Смотрите также архив погоды в соседних городах и на ближайших метеорологических станциях:

Погода на Мысе Константиновском (Ненецкий АО, Россия) (106 км)
Погода на Мысе Белый Нос (Ненецкий АО, Россия) (122 км)
Погода в Хорей-Вере (Ненецкий АО, Россия) (155 км)
Погода в Ходоварихе (Ненецкий АО, Россия) (172 км)
Погода в Амдерме (Ненецкий АО, Россия) (179 км)
Погода в Имени Федорова (Ненецкий АО, Россия) (186 км)
Погода в Харуте (Ненецкий АО, Россия) (228 км)
Погода в Нарьян-Маре (Ненецкий АО, Россия) (245 км)
Погода в Сенгейском Шаре (Ненецкий АО, Россия) (277 км)
Погода в Усть-Каре (Ненецкий АО, Россия) (279 км)

Пояснения к столбцам:

Ветер - указаны скорость ветра в м/с - средняя за 10 мин, порывы в срок и между сроками (в фигурных скобках) и направление, откуда дует ветер: С - северный, СВ - северо-восточный, В - восточный, ЮВ - юго-восточный, Ю - южный, ЮЗ - юго-западный, З - западный, СЗ - северо-западный.
Видимость - горизонтальная дальность видимости в метрах или километрах. При видимости от 1 до 10 км при отсутствии осадков обычно наблюдается дымка, при ухудшении видимости до 1 км и менее - туман. В сухую погоду видимость может ухудшаться дымом, пылью или мглою.
Явления - указаны атмосферные явления, наблюдавшиеся в срок или в последний час перед сроком; фигурными скобками обозначены явления, наблюдавшиеся между сроками (за 1-3 часа до срока); квадратными скобками обозначены град или гололедные отложения с указанием их диаметра в мм.
Облачность - указаны через наклонную черту общая и нижняя облачность в баллах и высота нижней границы облаков в метрах; квадратными скобками обозначены формы облаков: Ci - перистые, Cs - перисто-слоистые, Cc - перисто-кучевые, Ac - высококучевые, As - высокослоистые, Sc - слоисто-кучевые, Ns - слоисто-дождевые, Cu - кучевые, Cb - кучево-дождевые. Подробнее классификацию облаков см. в Атласе облаков (PDF).
T - Температура воздуха - температура, измеренная на высоте 2 м над землей.
Td - Температура точки росы - температура, при понижении до которой содержащийся в воздухе водяной пар достигнет насыщения.
f - Относительная влажность воздуха - влажноcть воздуха, измеренная на высоте 2 м над землей.
Te - Эффективная температура - температура, которую ощущает одетый по сезону человек в тени. Характеристика душности погоды. При расчете учитывается влияние влажности воздуха и скорости ветра на теплоощущения человека.
Tes - Эффективная температура на солнце - температура, которую ощущает человек, с поправкой на солнечный нагрев. Характеристика знойности погоды. Зависит от высоты солнца над горизонтом, облачности и скорости ветра. Ночью, в пасмурную погоду, а также при ветре 12 м/с и более поправка равна нулю.
P - Атмосферное давление - приведенное к уровню моря атмосферное давление.
Po - Атмосферное давление - измеренное на уровне метеостанции атмосферное давление.
Tmin - Минимальная температура - минимум температуры воздуха на высоте 2 м над землей.
Tmax - Максимальная температура - максимум температуры воздуха на высоте 2 м над землей.
R - Количество осадков - Количество выпавших осадков за период времени, мм. При наведении курсора мыши на число - период времени, за который выпало указанное количество осадков.
R24 - Количество осадков - Количество выпавших осадков за 24 часа, мм.
S - Снежный покров - Высота снежного покрова, см. При наведении курсора мыши на число - состояние снежного покрова и степень покрытия местности в баллах.